Theta_e
352 351 350 349 348 348 348 348 348 347 346 344 345 345 343 345 346 345 347 347 349 351 349 350 354 353 352 353 351 347 348 347 344 342 339 331 323 322 321 318 316 316 316 317 324 331 335 337 338 336 335 337 338 338 339 339 338 339 339 341 342 342 342 342 341 341 341 342 342 341 341 341 340 340 340 339 337 336 337 337 337 337 336 337 337
351 351 350 348 347 347 347 347 348 347 347 345 345 345 343 344 345 345 346 346 349 352 350 350 353 352 352 355 353 348 348 348 344 341 340 333 322 320 321 319 316 316 319 323 328 336 341 340 341 341 338 337 338 337 338 339 338 338 339 340 342 343 342 341 341 342 341 342 341 340 340 340 340 339 338 337 336 336 337 337 337 337 336 336 337
351 350 350 348 347 347 346 346 347 347 347 347 346 344 343 343 344 345 347 347 348 351 351 351 351 351 353 353 351 347 347 348 344 340 341 336 325 320 319 321 320 322 332 336 329 332 339 338 338 341 340 338 338 337 338 339 337 338 339 340 341 343 343 342 341 342 341 341 341 340 340 340 339 339 337 336 335 336 337 337 337 336 335 336 337
350 350 350 348 347 347 346 345 346 347 347 347 347 346 343 342 344 345 347 347 348 350 351 351 351 353 353 351 347 347 347 348 344 340 341 338 328 321 319 324 327 326 329 329 322 323 334 338 338 339 339 339 338 337 338 338 337 338 339 339 341 343 342 342 341 341 341 341 340 340 340 340 339 339 338 336 335 336 336 336 336 335 335 335 336
351 350 349 349 348 347 347 346 345 346 348 347 347 346 344 342 343 344 346 347 348 350 350 350 351 353 353 349 345 346 348 347 345 340 339 339 331 322 320 323 323 320 316 318 320 324 333 339 340 339 339 339 338 337 338 338 336 337 339 340 341 342 342 342 341 341 341 340 339 339 339 339 338 338 337 336 336 336 336 335 335 335 335 335 334
352 351 349 349 349 348 347 347 346 346 347 348 348 346 344 343 342 343 345 347 348 350 350 350 352 353 353 349 344 345 347 347 346 341 338 340 334 323 321 321 318 315 313 314 322 330 336 340 341 339 337 337 336 336 338 339 337 336 338 340 341 342 342 343 342 341 341 340 340 339 339 338 337 337 336 335 335 335 335 335 335 335 335 334 333
352 351 350 349 350 350 348 347 347 346 347 348 347 346 345 343 343 344 345 346 349 350 350 351 352 353 354 350 344 344 347 347 347 342 338 340 336 326 321 321 318 315 313 314 320 328 334 338 337 334 330 329 330 333 336 337 336 336 338 339 341 343 343 343 342 341 341 341 340 339 339 338 337 336 336 335 335 334 334 335 335 334 334 333 332
351 351 351 351 352 352 349 348 347 346 348 348 347 346 347 344 343 346 346 346 349 351 353 353 353 355 355 350 344 344 346 347 347 343 339 339 337 329 322 320 320 315 312 315 317 322 333 338 335 326 322 325 327 329 332 333 333 336 338 339 341 343 343 342 341 340 340 340 339 339 338 337 337 336 336 336 335 334 334 334 334 333 333 332 331
351 351 351 352 355 355 351 348 348 347 347 348 347 347 348 346 343 346 349 349 349 351 354 356 355 356 355 350 345 345 345 347 348 344 340 340 339 332 324 321 321 316 313 313 313 323 338 341 334 323 320 324 327 327 328 329 329 334 338 339 340 342 342 341 341 340 340 340 339 338 337 336 336 336 335 336 336 335 335 334 333 332 331 330 329
351 351 351 352 356 358 353 349 349 349 349 348 346 346 349 349 345 345 349 351 351 351 353 356 356 355 353 348 344 345 345 346 348 345 341 340 340 335 326 321 321 317 314 312 312 319 329 332 327 322 320 323 326 327 327 327 328 332 337 339 339 340 342 342 341 340 340 339 339 337 336 336 336 336 335 335 335 336 335 335 334 332 331 330 330
352 352 351 352 354 356 354 353 352 350 350 349 347 346 347 349 348 346 347 349 352 351 349 350 352 350 348 344 342 344 346 346 347 347 343 341 341 338 330 322 321 319 314 312 313 314 317 319 320 321 322 325 326 326 327 327 327 331 335 338 339 340 341 341 341 340 339 339 338 337 337 337 337 336 335 334 334 335 334 334 333 332 332 331 331
353 352 352 352 355 354 351 353 355 355 352 349 349 348 346 347 349 350 349 346 346 346 343 343 344 342 340 339 340 344 346 345 347 347 346 344 342 340 334 325 322 321 316 312 312 313 314 317 321 327 332 331 329 328 328 327 327 330 334 337 339 339 340 341 341 341 340 339 338 337 337 337 337 336 335 334 333 332 332 333 332 332 331 331 331
353 352 352 353 357 357 353 352 355 358 359 354 349 346 345 347 349 349 349 347 344 342 342 341 338 335 335 335 338 345 346 345 347 347 347 347 343 341 338 331 324 321 318 313 312 312 314 318 329 338 337 332 333 334 331 327 327 329 332 336 338 339 339 339 340 341 340 339 338 336 337 336 335 333 333 332 331 330 330 331 331 331 331 331 331
353 353 353 354 359 359 354 351 351 354 361 363 359 350 343 345 349 349 348 348 347 344 341 339 335 333 334 334 339 345 346 345 348 347 347 348 345 342 340 335 328 322 319 315 311 312 314 317 330 338 334 330 336 337 331 329 331 331 332 334 337 338 338 338 339 340 340 339 337 336 337 334 328 326 329 329 329 329 329 330 330 330 331 331 331
353 354 355 357 359 356 352 354 353 350 352 357 360 359 353 345 345 348 348 349 350 347 341 339 335 334 333 334 339 346 346 345 347 348 348 348 346 344 341 338 333 325 320 316 311 312 314 316 329 337 331 329 337 337 330 332 335 334 332 332 334 336 337 338 339 339 338 338 336 337 337 333 328 327 329 329 329 331 330 330 330 329 329 331 332
351 353 355 356 356 354 354 357 356 351 349 349 350 357 361 355 346 344 346 351 352 347 342 339 337 335 333 334 341 347 346 346 347 347 348 348 347 346 342 340 337 328 321 318 312 312 313 316 330 337 330 327 335 334 329 331 336 335 332 332 334 336 337 338 338 338 338 338 337 336 335 333 331 332 332 330 331 332 332 330 330 330 330 330 331
350 350 352 353 355 355 355 355 352 349 351 351 347 348 356 360 357 350 347 351 352 346 342 341 339 337 335 334 341 347 346 346 347 347 348 348 347 347 343 342 340 331 323 319 313 312 313 316 327 332 326 324 330 331 329 330 334 336 335 334 334 334 334 335 336 336 336 335 335 334 332 331 331 331 331 332 332 333 334 332 331 331 331 330 330
350 348 348 350 353 354 353 352 351 349 348 350 349 345 346 354 360 359 354 351 350 345 342 343 341 338 336 335 340 345 346 347 347 347 348 348 348 348 345 343 342 335 327 321 314 313 313 315 321 324 322 323 326 327 328 330 332 336 336 334 334 334 334 333 332 333 333 333 332 331 330 329 329 330 331 333 334 334 334 333 330 329 330 329 329
350 348 347 347 349 351 351 350 351 350 349 350 348 344 342 346 353 358 357 352 348 346 344 345 345 343 339 337 340 343 345 347 346 346 348 348 348 348 346 344 343 339 331 323 316 313 313 315 318 318 318 321 323 324 327 328 329 334 336 333 334 337 336 334 333 331 332 333 333 333 333 332 330 330 330 331 332 332 332 331 329 329 330 329 328
349 349 348 348 347 347 350 349 350 351 351 352 349 346 347 348 349 355 357 353 348 346 345 348 351 350 344 340 340 341 343 346 346 346 348 348 348 349 348 345 344 341 335 326 318 314 314 315 316 315 315 319 323 324 325 325 326 332 336 336 336 337 337 335 336 336 336 336 336 335 335 335 334 334 333 331 330 329 331 332 331 331 331 330 328
349 348 349 350 347 347 347 346 349 352 350 348 348 347 349 349 349 355 359 356 351 348 349 353 357 355 350 344 340 339 342 346 347 346 348 349 349 349 348 347 345 342 337 329 320 315 314 314 315 315 314 318 322 323 324 323 322 327 335 337 337 338 337 336 337 338 337 336 335 335 335 335 336 335 334 333 329 325 328 331 332 332 331 330 330
348 347 348 349 348 349 349 347 350 353 349 345 344 346 348 348 347 351 355 355 355 354 355 357 358 355 353 349 345 342 342 345 347 348 348 349 349 349 348 347 346 343 338 331 323 317 315 314 314 314 314 317 321 323 323 322 320 322 330 335 337 337 336 336 337 337 336 336 336 336 336 336 335 334 334 331 321 315 321 330 331 331 330 329 330
347 346 346 346 346 349 351 351 351 351 349 347 345 346 348 348 347 348 349 352 356 357 357 357 357 356 355 353 351 348 344 344 347 348 349 349 349 349 349 347 346 345 340 332 325 319 316 314 314 314 314 316 321 323 323 323 320 319 322 329 335 336 334 335 337 337 337 338 336 335 335 334 334 334 331 324 312 308 316 325 329 331 330 325 323
348 348 347 346 345 345 347 350 350 349 349 350 349 348 348 349 349 349 349 350 352 354 356 357 357 357 356 355 354 351 348 346 348 349 349 349 349 349 349 348 347 345 341 332 325 321 318 315 315 314 313 316 319 322 324 323 320 318 314 316 327 334 333 334 337 337 338 337 334 333 334 333 332 332 327 317 310 309 311 315 321 325 322 316 314
349 349 348 348 347 345 344 346 346 346 346 347 348 348 348 349 349 348 349 350 351 352 353 355 356 356 356 355 354 352 350 347 348 350 349 349 349 349 349 349 347 344 341 332 325 323 320 317 316 314 313 316 318 321 323 323 321 320 313 309 320 332 333 334 336 338 337 335 333 333 332 331 332 330 322 313 311 311 311 311 313 314 313 312 312
350 349 348 348 348 346 345 345 345 345 344 344 344 345 344 345 345 345 346 347 349 351 351 353 354 355 356 355 355 354 352 349 348 349 349 349 349 348 348 348 346 343 339 332 325 323 321 318 317 315 313 316 318 320 322 322 322 320 313 311 322 331 333 334 336 335 334 333 332 332 332 332 332 328 318 312 312 312 313 313 313 313 314 314 314
350 349 348 347 346 345 344 344 345 345 345 344 343 343 342 342 343 344 344 343 345 347 349 351 353 354 354 354 355 355 353 350 348 348 349 350 349 348 348 348 347 343 338 331 327 325 322 319 317 316 315 317 319 321 322 322 321 318 313 314 323 330 331 331 332 332 334 334 332 332 332 330 326 320 314 312 313 314 315 316 317 317 317 316 316
349 350 349 348 347 345 343 342 343 343 343 344 343 342 342 342 342 342 342 342 341 342 344 347 350 351 351 353 354 354 353 350 347 345 347 349 349 348 348 347 346 343 337 331 327 325 322 319 318 317 316 317 320 321 321 321 320 315 310 314 324 331 333 330 328 332 336 334 330 332 331 325 319 316 314 314 317 320 322 323 323 324 324 322 321
348 349 350 350 350 350 348 345 343 342 343 343 343 342 342 341 341 341 341 340 339 338 339 342 344 346 349 351 352 353 352 349 346 343 343 345 347 348 347 345 343 341 337 331 327 326 323 319 317 316 315 316 320 321 320 319 316 312 311 318 327 333 334 331 330 333 335 332 329 331 330 323 319 321 321 321 324 327 329 329 327 327 328 327 325
347 348 350 350 350 351 352 348 345 343 343 343 343 343 342 342 342 342 342 341 339 339 340 341 341 342 344 345 346 347 347 345 344 343 342 343 344 346 348 345 341 339 336 331 326 325 324 319 316 316 315 314 319 320 316 314 312 310 315 325 330 333 333 331 331 333 333 331 330 331 328 323 323 327 330 329 329 331 331 329 327 327 329 329 327
346 347 348 349 349 350 351 351 349 346 343 342 341 341 342 342 342 342 340 339 338 338 339 339 339 340 341 341 342 344 345 345 345 345 345 345 343 343 346 345 341 339 338 333 327 326 325 319 316 317 315 314 316 316 313 312 310 309 318 327 331 333 333 330 331 333 332 331 332 330 327 327 327 331 333 330 329 331 330 327 326 327 329 330 328
345 347 347 348 348 349 349 350 351 348 345 343 341 341 342 343 343 342 341 340 340 340 340 341 342 342 342 342 345 347 348 348 348 347 348 347 345 343 343 343 341 339 337 334 330 328 326 321 316 317 316 314 314 314 314 314 309 309 321 330 331 333 332 327 329 333 332 332 333 329 327 329 330 330 333 330 327 329 328 322 323 326 328 330 330
340 344 346 347 347 348 349 349 350 350 349 348 347 347 349 349 349 349 349 349 349 349 349 350 350 349 349 349 350 352 352 351 350 350 349 349 348 346 342 340 340 339 337 333 330 328 327 322 317 317 315 313 315 318 320 318 312 315 327 332 330 331 331 325 329 334 331 330 331 328 326 330 329 327 331 331 328 329 326 319 321 327 329 329 329
338 341 344 346 347 347 348 348 349 349 349 351 351 352 352 353 353 353 353 353 353 353 352 352 350 350 351 352 353 355 355 353 352 351 351 350 350 348 343 340 340 339 338 336 332 330 328 322 318 318 316 314 316 319 320 321 320 324 332 333 329 330 330 326 328 333 330 328 330 328 327 330 329 326 330 331 329 329 327 322 321 325 326 327 329
340 341 343 345 346 347 347 347 348 349 349 350 351 352 352 353 352 352 352 352 352 351 352 351 349 347 348 349 351 352 352 352 352 352 352 351 350 348 345 342 339 337 336 336 335 332 328 322 319 318 316 317 321 320 320 326 329 330 332 333 329 330 331 327 327 330 328 327 329 329 327 328 328 328 330 331 330 330 329 327 327 326 324 325 329
339 341 343 343 343 344 345 346 346 346 348 349 350 350 351 351 350 349 350 350 351 352 351 351 349 348 346 345 346 346 346 347 349 352 351 349 348 347 345 343 340 338 337 336 335 332 327 321 320 319 318 323 327 323 323 331 335 332 331 332 329 328 330 328 327 328 328 326 327 328 328 327 327 329 330 329 328 329 329 328 329 329 325 324 328
337 339 340 340 340 340 342 344 346 345 345 347 348 349 348 347 347 348 349 350 352 352 351 351 351 349 346 344 344 345 345 346 347 348 347 345 344 344 344 343 341 340 338 336 333 330 325 321 322 322 321 325 326 321 321 330 335 332 331 332 329 328 329 328 327 328 327 326 326 327 328 327 326 327 329 329 328 329 329 327 327 328 327 325 326
335 336 336 336 337 339 341 343 345 345 344 345 346 348 348 346 346 347 349 350 352 352 351 351 350 348 345 344 345 347 346 345 346 346 344 343 341 340 341 342 342 341 340 337 333 330 325 322 324 325 324 325 324 318 318 326 332 331 331 331 329 329 329 328 328 328 326 325 327 327 326 327 327 325 327 329 328 328 329 328 326 327 327 325 325
334 336 332 329 330 335 338 342 343 344 345 345 344 346 348 348 349 349 349 350 350 350 350 350 349 347 345 344 346 348 347 345 346 345 343 343 342 340 340 342 342 341 341 338 335 330 325 322 324 326 325 326 324 319 317 324 331 332 332 331 329 329 328 328 329 328 325 325 328 328 326 326 327 325 324 326 328 328 329 328 327 327 327 325 325
335 335 329 321 319 322 330 337 341 343 344 345 345 346 347 347 348 349 349 348 348 349 350 350 349 348 347 344 344 347 348 347 347 346 344 344 343 340 340 342 342 342 342 340 337 333 329 327 328 329 326 324 323 321 320 325 331 333 333 332 330 328 328 328 329 329 326 324 326 328 326 324 325 325 323 323 326 328 328 328 328 327 326 326 324
331 330 324 316 312 314 321 332 340 342 343 344 345 346 346 346 347 347 347 347 346 347 348 349 349 349 348 346 345 346 347 348 348 347 346 346 344 342 342 342 343 343 343 342 341 340 338 336 335 333 328 323 321 321 322 327 331 333 334 334 332 329 328 328 328 329 328 324 323 326 327 324 323 325 324 322 324 326 327 327 328 327 327 326 323
320 320 317 312 312 317 322 329 336 340 342 343 344 345 346 347 347 346 346 346 346 345 346 347 348 349 349 348 347 345 346 346 347 346 347 346 344 344 343 344 345 345 344 343 344 344 342 340 337 334 331 325 321 321 324 327 330 332 333 334 333 331 329 328 328 328 328 324 321 324 328 327 324 324 325 323 324 325 326 327 328 327 327 326 323
314 312 313 317 322 326 328 331 334 338 341 342 342 343 345 347 347 347 346 345 345 346 345 344 346 349 349 349 348 346 345 344 344 345 347 347 345 345 344 344 345 344 342 343 343 343 342 341 339 336 333 328 324 326 328 326 325 330 333 334 333 332 330 330 329 329 328 326 323 322 326 328 326 324 325 325 324 324 325 327 327 327 327 326 323
318 317 320 325 329 329 328 328 329 331 335 339 341 342 344 346 346 347 347 345 345 346 345 345 345 346 347 348 348 347 345 344 344 343 345 345 345 346 346 345 345 344 341 341 342 341 341 340 339 337 335 330 326 329 331 328 325 330 334 334 333 333 332 331 331 330 328 328 326 323 324 327 327 325 325 326 325 324 325 326 327 327 327 326 323
328 328 327 327 328 328 328 327 327 328 331 336 339 341 344 346 346 346 347 346 346 345 345 345 345 345 345 346 346 346 346 345 344 343 344 344 344 346 346 346 346 345 342 341 341 340 340 339 338 336 336 333 327 327 328 327 327 331 334 333 333 334 333 332 332 331 329 329 329 326 323 325 328 326 325 326 326 324 324 326 327 327 327 326 324
331 331 329 328 328 329 329 329 330 331 333 335 337 338 341 343 345 345 345 346 346 346 345 344 344 344 344 344 345 345 345 345 344 344 344 343 344 344 345 345 347 346 343 342 342 341 340 339 337 336 336 335 330 326 325 326 327 330 333 333 333 334 334 333 332 332 330 330 330 329 325 324 327 328 326 325 326 325 324 325 326 327 327 326 325
330 331 330 330 329 328 327 327 328 330 332 334 335 336 337 339 342 343 344 344 345 346 346 345 343 342 342 343 343 344 344 344 344 343 344 345 345 345 344 344 345 345 345 343 341 340 340 339 337 337 337 336 332 328 325 325 326 329 332 333 332 333 334 333 332 332 331 330 330 329 327 324 325 327 327 325 325 325 324 324 325 326 326 326 325
330 329 329 328 327 326 327 327 327 328 330 332 334 335 335 337 339 341 343 344 344 345 345 345 345 344 343 342 343 343 343 343 343 343 343 344 346 345 345 344 344 344 344 342 340 339 340 339 339 338 338 335 332 328 326 326 328 330 331 332 332 332 333 333 332 331 331 331 330 329 327 325 324 325 326 326 325 324 324 324 324 325 326 326 325
328 327 326 327 327 327 327 327 328 329 330 331 332 333 334 335 336 338 341 343 344 344 344 345 346 345 344 343 343 343 343 343 343 342 342 343 344 344 344 342 341 342 342 341 339 339 340 340 339 338 337 334 331 329 327 327 329 331 332 332 331 331 331 332 332 331 330 331 330 329 328 327 325 324 325 326 325 324 323 323 324 325 325 325 325
326 325 324 325 326 326 327 327 328 328 328 329 329 330 331 332 333 334 337 340 342 343 344 344 345 345 345 345 344 344 343 343 343 342 341 341 342 343 343 341 341 341 340 339 339 339 340 340 339 338 337 335 332 329 328 328 330 331 332 332 331 331 330 330 331 331 330 330 330 329 328 328 328 327 326 325 325 324 323 322 323 324 325 325 325
325 324 323 323 324 325 325 326 327 327 328 328 329 329 330 331 332 333 333 335 338 341 343 344 344 345 345 345 344 344 344 343 343 342 341 341 341 342 342 341 340 340 340 339 339 339 340 340 339 338 337 335 331 329 330 332 332 331 331 330 330 330 329 329 330 331 330 329 330 330 329 329 329 329 327 326 325 324 323 322 322 323 324 325 325
Wind_Speed
25 25 24 23 21 21 21 21 21 20 19 19 17 16 16 17 17 15 14 13 13 13 12 11 10 7 5 5 6 5 1 3 6 7 7 5 3 4 4 4 5 5 6 9 10 10 11 11 11 9 9 12 13 12 11 10 13 12 9 9 11 11 11 9 11 13 12 11 11 11 11 11 11 11 11 11 11 11 12 13 13 14 15 15 15
27 26 26 25 23 21 21 22 22 22 20 19 18 18 16 16 17 16 15 15 13 13 13 12 11 9 9 10 9 6 2 1 3 6 6 5 3 3 3 3 3 4 8 10 9 9 9 9 9 8 9 10 9 11 11 8 8 10 8 7 8 11 11 10 11 13 12 11 12 11 10 10 12 12 12 12 12 13 13 13 14 16 17 17 16
29 28 27 26 25 22 21 22 23 23 21 20 19 19 17 16 17 17 17 16 14 14 13 13 13 12 12 13 11 7 3 1 2 5 6 5 3 3 3 2 3 5 7 7 5 6 7 7 8 7 8 9 7 9 10 7 7 9 8 8 9 10 10 10 11 12 12 12 12 11 11 12 12 13 14 15 14 13 14 14 14 16 17 17 17
30 30 29 27 26 24 22 22 23 22 21 21 19 19 18 17 17 17 17 16 16 15 13 13 15 14 14 14 10 6 4 2 2 4 5 5 4 3 3 3 3 3 4 2 3 7 8 7 8 8 7 7 6 8 9 7 6 7 7 8 9 9 10 10 10 11 11 12 11 11 12 12 12 12 14 17 17 14 14 15 16 18 19 19 20
28 30 31 28 27 26 23 22 22 22 21 21 20 19 19 18 17 18 17 15 16 16 14 15 16 14 13 13 9 6 5 2 1 2 3 5 4 3 3 2 1 1 2 2 3 7 9 8 6 5 6 5 5 7 8 7 6 6 7 9 10 10 10 10 10 10 12 12 12 12 12 12 13 13 14 16 17 16 15 17 19 19 19 20 21
29 30 32 30 27 27 25 22 21 22 23 22 20 19 20 19 17 19 20 17 15 16 16 17 16 14 13 13 10 7 5 3 1 2 2 3 3 2 2 1 0 1 2 2 4 6 7 6 4 3 4 4 4 6 6 4 6 7 7 10 11 9 9 10 10 11 12 12 13 13 13 13 14 15 15 15 16 17 15 15 17 18 18 20 22
31 30 31 31 28 28 27 25 23 23 23 23 21 19 19 20 17 17 21 22 17 15 17 18 14 12 14 16 12 7 5 4 2 2 2 2 3 2 1 1 0 1 1 2 4 4 4 3 1 2 4 5 6 6 6 3 5 7 7 10 11 9 9 10 11 12 13 13 13 13 14 14 15 15 14 13 14 16 14 13 16 16 16 20 24
32 31 31 30 29 30 31 26 25 26 25 23 22 20 19 21 18 15 19 25 23 16 15 16 13 12 16 18 13 7 5 5 4 2 2 1 2 1 0 1 1 1 2 2 2 4 5 3 2 4 5 5 7 7 5 3 4 6 8 10 11 10 10 11 13 14 13 12 13 13 14 15 15 13 11 10 12 12 12 13 16 16 16 20 23
30 32 34 31 28 30 32 29 27 29 29 26 25 22 18 19 21 18 17 23 26 22 18 16 14 16 19 19 14 8 7 6 5 3 2 1 1 0 1 2 1 1 2 2 3 5 5 0 4 6 5 3 6 7 5 4 5 6 7 9 11 11 11 10 12 13 12 12 13 13 14 15 13 11 10 11 11 9 9 11 15 17 18 21 24
27 30 35 35 30 29 31 30 29 30 31 29 29 26 20 18 22 23 20 20 22 24 22 18 16 19 21 18 14 10 8 8 6 5 3 2 1 1 1 2 2 2 2 2 3 4 5 4 5 6 3 3 5 6 5 5 6 7 8 9 10 11 10 10 12 13 12 12 12 12 13 13 10 9 9 10 10 9 9 10 12 13 16 20 22
27 30 35 37 34 30 30 30 29 30 31 29 29 30 26 21 21 23 24 22 20 22 23 21 21 23 22 18 14 11 10 9 8 6 4 2 2 1 2 2 2 2 2 2 3 3 3 2 3 3 1 3 5 5 5 5 6 8 9 9 10 10 10 10 11 12 11 11 9 9 11 11 10 9 9 7 6 6 7 8 8 9 12 17 19
28 30 35 36 34 31 32 32 28 26 29 30 28 29 30 27 25 25 26 25 22 21 21 22 23 24 22 18 14 13 12 10 9 7 4 3 2 2 3 3 3 3 3 3 3 2 1 1 1 2 2 3 4 4 4 4 5 7 9 10 10 10 10 10 11 10 11 11 9 9 9 9 8 8 8 6 5 5 5 5 6 9 12 16 19
29 29 31 32 31 30 32 34 29 23 25 28 29 29 30 30 29 28 26 23 22 22 22 22 22 21 21 18 16 15 14 11 10 8 5 3 3 3 4 3 3 4 3 3 3 2 1 1 4 3 1 1 2 1 1 4 5 6 7 8 8 9 9 10 10 9 9 8 8 9 8 7 7 7 6 5 7 11 11 8 8 10 13 16 17
27 27 27 29 29 27 28 30 30 26 24 24 26 27 29 30 30 29 26 22 22 23 22 21 21 21 21 19 17 17 15 12 11 9 7 5 3 4 5 3 3 4 4 4 4 2 2 3 6 5 4 3 2 2 3 4 4 4 4 5 6 8 9 9 9 9 8 7 7 9 8 7 10 12 10 10 12 16 18 16 14 13 14 15 15
21 21 24 28 30 28 26 24 26 27 26 23 22 23 26 29 29 27 25 24 24 24 22 21 21 21 21 19 19 19 16 13 12 10 8 7 5 4 5 4 4 4 4 5 4 3 3 4 7 5 4 5 7 6 5 5 4 3 2 4 6 8 9 8 8 8 8 7 6 8 8 8 10 12 13 15 16 16 17 17 17 16 15 14 13
18 19 21 25 29 28 25 22 22 24 25 23 23 22 23 26 27 27 26 26 25 23 22 22 22 22 21 20 20 20 17 14 13 11 10 8 6 5 5 5 5 4 4 6 5 4 5 5 7 7 6 6 8 7 5 6 6 2 2 4 7 7 7 7 8 8 7 6 7 8 8 8 8 9 11 14 15 13 12 13 15 15 15 14 12
16 19 20 21 27 29 26 23 22 24 23 21 22 22 21 22 24 26 28 28 26 24 23 23 22 21 21 20 21 21 18 15 14 13 11 10 8 6 5 4 5 5 6 7 6 6 6 5 7 8 6 6 9 9 6 6 7 5 4 5 5 5 6 7 8 8 8 7 8 9 9 8 8 9 11 14 15 11 8 9 10 9 10 12 13
12 17 19 20 25 29 27 23 22 24 23 20 21 23 22 21 23 25 27 27 25 24 24 24 23 21 20 21 22 22 19 16 15 15 13 12 11 8 6 5 5 5 6 7 7 7 7 6 7 8 6 6 9 10 9 8 8 9 6 3 3 4 5 7 8 9 10 10 11 10 10 9 9 10 12 14 14 12 10 8 7 5 6 9 10
8 13 17 19 21 24 25 23 21 21 20 18 20 22 22 21 21 23 25 25 24 24 24 22 20 20 20 21 22 23 21 18 16 16 15 14 13 11 8 6 6 6 7 8 8 9 7 6 8 7 5 7 10 10 10 9 10 12 9 6 6 5 2 5 9 11 11 11 10 9 8 8 8 8 8 8 10 12 13 11 9 7 7 7 8
5 9 11 13 17 20 24 22 18 17 17 16 17 20 20 20 20 21 23 23 22 23 22 18 17 18 19 20 22 23 23 20 17 17 17 16 15 13 10 8 7 7 7 8 10 10 8 8 9 8 6 9 11 10 10 10 10 13 10 7 8 9 8 5 7 9 8 8 7 7 7 7 7 6 5 4 7 11 12 11 9 9 8 8 9
3 5 6 10 12 15 21 23 18 16 17 17 17 19 20 20 19 19 20 20 20 21 20 18 17 17 17 18 21 23 23 21 19 18 18 18 18 15 12 10 9 8 8 9 11 10 9 9 9 9 8 9 11 11 11 11 11 13 13 11 10 11 11 8 6 7 7 7 8 8 8 9 10 6 2 0 2 8 12 12 10 8 10 12 12
1 1 2 6 8 10 17 21 17 15 16 17 18 19 20 21 21 20 19 18 19 20 20 19 19 18 17 17 19 21 23 22 21 20 20 20 19 16 13 12 11 9 8 10 11 11 10 9 9 9 9 10 11 12 12 11 11 11 13 14 14 12 9 8 7 7 9 8 7 7 7 9 8 6 6 4 0 6 11 14 12 8 8 9 9
7 4 2 2 3 6 12 17 17 16 17 18 18 18 18 19 21 21 20 18 17 17 18 19 19 18 18 17 17 19 21 22 21 21 21 22 21 17 15 14 12 10 10 11 12 12 11 10 10 10 11 11 12 12 12 11 11 10 11 14 16 14 9 8 8 7 7 6 6 7 7 7 8 9 9 4 3 6 10 13 14 11 8 6 6
11 12 12 9 7 6 7 12 16 16 16 18 17 17 18 19 20 20 19 17 16 15 15 16 17 17 17 17 17 18 20 20 20 20 20 22 21 18 17 16 14 12 11 11 13 14 12 9 10 12 12 12 12 13 12 12 11 11 11 12 16 17 12 10 11 8 7 10 10 9 9 9 9 9 7 3 6 8 9 11 11 10 7 7 9
10 12 14 14 13 11 10 12 14 13 13 16 16 15 16 16 17 18 17 15 16 17 16 17 18 17 16 16 16 17 18 19 19 19 19 21 22 20 19 17 16 15 14 13 14 16 12 9 11 13 13 13 13 13 13 12 12 12 10 11 16 18 13 12 13 11 10 11 11 9 9 10 10 8 5 4 8 9 10 12 10 8 7 9 10
10 10 12 14 14 14 15 17 18 16 15 16 16 15 15 14 14 15 14 12 13 14 15 17 19 19 17 16 16 16 17 17 19 20 21 21 23 23 21 20 19 18 17 16 17 18 14 11 12 15 14 13 14 14 13 13 13 12 11 12 16 17 14 12 13 12 11 12 11 10 11 11 10 8 6 7 10 11 12 13 12 11 9 8 9
10 10 12 14 15 15 16 17 19 19 19 20 20 19 19 19 18 17 15 13 11 12 13 16 18 18 18 17 18 18 18 17 18 19 21 23 25 26 24 23 23 22 20 19 19 19 16 13 14 15 15 14 14 15 14 14 14 13 13 15 16 15 12 11 12 13 13 11 11 12 13 11 9 9 10 12 13 14 14 14 14 13 11 9 9
12 11 12 14 16 17 18 18 19 20 20 21 21 21 21 22 23 22 20 17 15 15 16 18 18 18 18 18 19 20 21 20 18 16 15 17 23 28 28 27 26 25 24 22 21 20 17 15 16 17 17 16 17 17 16 16 15 14 15 17 16 14 11 10 13 16 13 10 12 15 13 10 11 12 13 15 14 13 12 11 11 11 10 8 8
14 13 12 13 14 17 17 16 16 18 20 21 22 22 22 24 24 23 21 20 19 19 21 21 20 19 19 19 20 21 22 22 21 19 14 13 16 24 29 30 29 27 26 24 23 21 20 19 19 20 20 19 20 19 18 17 16 16 18 18 17 15 13 13 16 16 12 11 16 16 13 11 13 12 12 13 11 10 9 8 8 9 7 5 5
16 14 13 12 12 14 16 16 16 18 20 21 22 22 23 24 24 23 20 20 20 21 22 22 20 20 21 22 21 23 24 24 24 21 18 16 15 18 24 30 31 28 27 25 24 23 21 20 22 23 22 22 21 20 19 18 18 19 21 19 16 15 17 18 17 15 14 16 17 17 14 12 12 12 11 11 10 10 11 12 10 11 11 10 6
18 17 15 13 12 12 14 15 16 19 20 21 23 23 22 21 21 19 17 17 19 20 21 21 22 23 25 26 25 25 26 27 26 24 22 21 18 17 21 29 32 29 26 26 26 24 22 22 23 24 24 23 22 22 20 18 19 22 22 19 16 17 21 21 19 17 18 19 17 17 16 14 13 13 13 12 11 12 14 14 13 14 14 12 11
20 19 17 15 14 12 11 12 13 16 19 22 23 23 21 19 17 15 16 18 20 21 23 25 26 27 28 28 27 26 27 28 29 28 26 25 23 21 21 26 30 29 26 25 26 25 23 22 23 25 26 24 23 23 21 18 20 22 21 18 18 19 19 19 19 19 21 21 18 16 17 15 13 15 14 12 11 13 13 13 16 17 14 10 11
21 20 18 16 15 13 11 10 10 11 15 18 20 19 18 16 14 13 15 17 18 20 21 22 24 24 25 25 26 27 28 29 30 31 31 29 28 26 22 22 26 29 28 27 27 26 24 23 24 26 26 25 24 23 21 19 19 21 19 17 20 20 18 17 19 20 20 19 17 16 18 16 14 15 15 13 11 13 13 12 17 17 13 9 9
20 20 19 17 15 14 13 11 8 8 11 14 16 16 16 15 14 15 17 18 18 18 19 20 22 23 23 24 25 27 30 31 31 33 34 33 32 30 25 22 26 29 28 27 27 26 25 24 25 27 27 26 26 25 23 20 19 20 20 18 19 20 17 16 20 20 18 18 18 17 17 17 15 15 16 14 12 13 13 12 15 16 13 10 10
18 19 19 18 15 14 14 13 10 7 8 11 13 14 15 15 15 16 18 19 18 18 20 21 22 22 22 23 24 26 28 30 31 34 36 35 35 33 28 26 30 33 32 29 27 26 25 25 27 28 28 27 26 25 23 21 19 19 20 19 19 20 19 18 21 22 19 18 20 18 17 17 16 16 16 16 14 15 14 12 13 14 11 11 11
16 18 18 18 17 16 16 15 12 10 8 10 12 13 14 15 16 17 19 19 19 20 22 23 23 21 21 21 22 23 24 27 31 35 36 35 35 35 32 31 34 36 35 33 29 27 27 27 28 29 29 28 27 25 23 22 20 20 21 21 20 21 20 20 22 23 20 20 21 19 18 18 17 17 17 16 15 16 16 13 14 15 12 11 12
14 16 17 17 17 17 17 15 12 10 9 9 11 12 13 15 17 19 20 21 21 21 22 24 24 21 20 20 19 20 21 23 28 32 31 28 28 30 31 30 33 35 35 33 31 30 29 29 30 30 30 30 29 26 24 23 22 21 21 21 21 22 22 21 23 24 22 21 21 20 19 18 18 18 19 17 16 17 17 15 15 17 14 12 12
13 13 15 16 16 15 16 15 13 11 10 10 10 11 12 14 17 19 20 20 19 18 18 21 23 21 19 18 17 15 15 18 23 26 25 22 23 26 26 26 29 32 32 32 32 32 31 32 32 32 32 31 29 26 25 24 24 23 22 22 22 22 22 22 23 23 22 22 22 20 19 19 19 19 20 18 17 17 17 15 15 18 17 14 14
14 13 14 15 15 14 14 15 15 12 11 11 11 10 10 12 15 17 17 17 17 17 17 20 21 20 18 16 15 13 12 14 18 21 22 23 24 26 25 25 27 29 29 31 32 33 33 34 34 33 33 30 27 26 25 25 24 23 23 23 23 23 23 23 23 23 22 23 23 21 20 21 21 19 19 19 18 18 18 17 16 18 18 17 16
15 16 17 18 18 16 14 14 15 14 13 11 11 11 11 12 14 13 12 13 14 14 16 18 19 20 20 16 13 12 13 14 16 18 20 23 24 25 26 27 28 29 29 30 32 33 34 34 34 34 33 30 28 28 27 26 25 24 23 24 25 25 24 23 23 23 23 23 24 22 21 23 23 20 20 21 19 18 19 18 17 18 18 17 17
17 18 20 21 20 18 15 13 13 15 15 14 13 12 11 11 11 10 9 11 12 13 15 17 18 20 22 19 14 12 13 15 16 17 19 22 24 25 25 27 28 28 29 30 31 32 33 33 34 35 33 30 31 31 28 27 28 28 25 25 26 26 25 24 24 23 23 24 25 24 20 22 24 22 21 22 20 18 19 19 19 18 17 15 15
19 21 23 23 20 17 15 14 14 15 16 15 15 14 13 11 10 9 9 10 12 13 13 14 16 19 21 21 19 16 14 16 18 19 20 22 24 26 27 27 28 28 30 30 30 30 32 33 34 35 34 31 31 31 29 28 31 29 25 25 27 27 26 26 26 25 23 23 25 26 22 21 23 23 21 22 21 19 19 20 20 19 18 16 16
20 21 21 21 18 16 14 15 15 16 16 16 16 16 15 14 11 9 9 11 12 13 12 11 14 17 18 19 21 20 16 17 20 20 20 22 24 27 28 28 28 29 30 31 30 29 31 32 33 35 34 32 31 30 29 30 33 30 25 26 28 28 27 26 26 26 24 23 24 27 24 21 22 23 21 21 22 21 19 20 21 21 19 17 17
20 19 18 18 17 16 16 15 15 15 16 17 18 17 16 15 13 11 11 10 10 11 12 10 11 14 15 17 19 20 18 17 19 20 20 20 22 24 26 27 28 29 31 32 31 31 32 32 32 33 34 32 33 33 30 28 31 30 27 27 28 28 28 27 25 26 26 24 24 26 27 22 21 23 23 22 22 22 21 21 22 22 21 19 19
18 17 17 17 17 17 17 17 16 15 15 16 17 17 16 15 14 13 13 10 8 10 11 11 11 13 14 15 17 18 18 18 18 19 20 20 21 23 24 25 27 29 32 34 33 32 32 31 31 32 32 31 34 38 35 31 31 30 28 28 28 28 29 29 26 25 27 26 24 25 27 26 22 23 25 24 22 22 23 22 21 23 23 21 21
17 17 17 17 17 17 18 17 17 16 16 16 16 16 16 16 16 16 16 14 11 10 10 11 12 15 16 16 16 17 18 18 18 19 19 20 21 23 24 25 25 27 31 34 34 33 32 31 31 32 31 30 32 38 38 35 32 31 29 29 29 27 27 28 27 25 26 27 25 24 26 27 25 22 24 25 24 23 23 22 21 22 24 23 22
18 17 16 16 17 18 18 18 18 18 17 17 17 17 17 17 17 17 17 17 16 14 13 11 11 14 16 16 16 16 16 18 19 19 18 18 20 21 23 25 26 28 30 33 34 33 30 29 30 32 31 29 31 38 40 37 33 31 30 31 31 28 26 26 27 26 25 26 26 25 24 27 27 24 23 24 25 24 24 23 22 22 23 23 23
17 17 18 18 18 19 19 18 19 18 18 18 18 17 16 16 17 17 17 18 17 18 17 14 11 11 14 16 16 15 15 16 18 18 17 17 19 21 23 24 26 28 30 32 34 34 32 30 31 31 29 27 30 37 39 37 34 31 31 32 32 31 27 25 26 27 26 25 26 25 24 25 27 27 24 24 24 25 24 23 22 22 23 24 23
18 19 20 20 19 19 19 19 19 19 18 18 18 18 17 17 17 17 18 19 18 18 18 16 13 12 13 15 16 15 15 16 16 16 15 16 18 21 23 24 24 25 28 32 35 37 36 34 32 29 27 27 29 32 35 36 34 32 32 33 33 33 30 27 25 27 28 26 25 25 24 24 25 26 26 24 24 24 24 24 22 22 23 24 25
22 22 21 21 21 21 20 20 20 20 20 20 20 20 19 19 18 18 18 19 19 20 20 19 18 15 13 14 16 16 15 15 16 15 14 15 17 19 22 24 24 24 27 32 36 36 35 34 31 27 26 29 30 30 30 33 34 33 34 34 33 32 32 30 27 27 29 28 26 25 25 26 25 25 26 26 25 24 25 24 23 22 22 23 25
25 24 24 23 23 22 22 21 21 21 21 21 21 20 20 20 19 19 18 19 20 21 21 21 21 19 16 16 18 19 17 16 16 16 16 15 15 17 20 23 25 25 27 31 35 36 35 33 30 27 27 31 33 31 31 33 35 35 35 35 33 33 33 33 30 28 29 30 28 25 26 27 26 25 25 26 26 25 25 25 25 25 24 22 22
Wind_Direction
210 212 211 212 212 210 210 210 208 210 212 210 210 211 210 209 208 206 205 201 198 201 202 196 187 181 182 200 235 266 303 33 30 35 32 24 7 4 20 38 52 58 59 59 57 53 56 64 60 58 77 74 59 61 63 35 16 22 42 45 29 32 44 52 65 68 68 69 58 47 49 53 54 50 32 21 38 62 63 58 59 56 54 52 49
207 212 213 213 215 215 213 212 209 208 210 211 212 214 214 212 210 208 207 204 201 200 196 193 196 188 175 190 218 242 249 21 31 35 34 25 12 12 22 43 60 64 58 50 53 58 58 69 67 49 54 62 59 59 53 47 46 30 33 66 44 29 40 50 63 70 70 69 59 51 57 62 58 48 30 27 51 72 72 66 59 56 56 55 50
204 208 213 213 216 216 217 216 211 206 208 211 212 215 217 217 213 209 207 204 205 205 196 195 205 198 186 202 223 237 232 216 20 31 36 25 16 20 22 52 68 60 60 48 49 71 68 74 88 81 64 57 58 61 46 38 63 50 43 68 55 36 41 49 59 68 71 71 64 58 65 66 59 49 38 39 54 72 78 73 65 62 61 58 56
207 208 210 212 216 217 219 220 213 207 208 211 213 215 217 218 216 212 207 203 204 204 198 202 210 201 196 213 230 233 223 205 36 25 34 30 23 21 24 60 80 67 84 70 42 75 79 72 80 88 84 69 63 70 51 26 47 63 60 68 61 46 46 51 56 63 70 73 69 68 70 66 59 50 44 46 53 67 78 76 70 68 66 62 59
214 214 211 209 214 217 220 221 216 210 210 211 214 216 217 218 218 213 206 204 206 204 199 205 214 210 210 227 232 218 220 214 58 6 26 38 33 27 32 63 108 97 104 90 57 71 76 73 73 80 87 80 71 78 63 21 20 55 73 78 67 48 46 57 59 62 71 76 76 74 72 70 63 53 43 45 52 59 68 76 74 69 66 62 57
220 216 213 210 212 218 221 222 217 213 212 213 214 216 217 218 222 216 208 204 207 207 201 205 218 218 217 231 230 209 215 220 214 328 10 42 36 39 42 26 98 117 115 95 77 71 68 70 71 68 88 92 84 96 97 46 20 39 71 90 81 54 46 58 60 65 73 76 78 77 73 70 67 59 48 40 44 49 55 69 71 65 64 63 56
223 218 216 214 215 219 220 220 219 215 212 212 212 217 219 219 223 221 211 206 203 202 200 204 216 218 214 225 228 207 208 221 225 292 332 39 43 50 35 337 40 147 134 96 90 93 87 90 80 25 52 76 84 104 119 95 42 45 69 97 94 69 56 63 64 71 76 74 75 76 73 72 70 66 57 40 38 44 46 56 60 56 62 65 59
225 223 218 215 218 221 218 219 223 221 217 212 209 214 221 220 220 220 210 206 203 197 193 196 204 209 213 225 229 211 213 227 229 259 289 7 51 73 270 250 226 204 143 117 113 95 70 43 345 359 25 66 84 95 106 75 47 63 78 99 102 79 66 74 77 77 79 77 79 80 80 79 76 76 74 57 46 43 38 46 54 53 58 65 63
229 226 218 213 217 223 221 223 228 225 221 217 209 210 220 220 218 219 212 206 204 203 196 189 197 212 220 228 231 221 223 229 229 246 273 321 5 184 229 230 231 214 165 143 123 106 93 51 291 333 3 77 92 91 97 68 53 76 90 104 107 89 74 80 87 87 83 77 76 78 80 82 81 79 78 70 59 44 28 39 54 60 64 69 67
225 223 219 213 214 222 223 225 230 225 221 221 216 212 216 216 215 220 221 215 211 212 209 200 204 221 228 231 232 229 229 227 228 238 252 288 298 265 230 235 233 213 193 157 134 142 152 204 275 319 346 109 99 89 95 76 66 83 94 103 111 106 95 90 93 97 95 88 86 86 82 81 79 70 68 74 77 70 55 49 54 64 70 71 68
222 221 220 216 214 219 222 223 227 225 220 221 219 214 214 215 214 219 226 228 224 222 222 215 217 227 233 235 234 231 229 227 224 227 237 272 292 283 254 246 237 229 210 171 167 186 185 220 273 296 348 108 101 95 94 86 78 85 98 110 119 119 116 105 99 103 104 101 100 97 90 87 81 72 72 81 87 85 81 68 63 77 80 74 72
225 222 220 218 216 218 221 221 224 223 219 221 220 213 212 215 216 218 224 230 231 230 228 222 222 230 235 236 233 230 228 224 220 221 230 256 284 284 267 254 240 238 224 201 201 206 223 314 5 40 66 98 106 90 83 94 93 91 102 114 120 125 127 113 102 105 110 108 104 101 102 102 97 88 85 83 66 61 78 81 82 97 95 85 82
229 227 223 222 220 217 218 220 221 218 215 218 220 215 211 212 215 219 223 226 227 228 227 224 226 233 235 232 230 229 226 219 216 218 222 240 273 279 271 269 252 241 229 219 223 224 252 94 100 105 202 143 108 29 82 115 104 92 101 112 116 122 125 114 100 98 107 114 115 112 109 104 95 88 84 86 75 67 71 81 93 101 99 92 89
232 232 229 225 219 216 219 222 223 218 210 210 213 213 212 212 214 218 222 223 223 225 226 226 228 231 232 229 226 227 225 217 216 216 214 228 251 265 275 285 264 251 236 225 226 218 222 159 142 171 222 160 139 250 204 133 89 76 107 133 128 118 118 117 108 101 99 101 114 115 105 92 88 85 84 91 85 71 67 75 85 92 96 91 86
232 233 230 223 219 221 225 225 222 219 217 217 214 208 208 213 215 217 219 221 222 224 226 227 227 228 229 226 223 226 225 217 216 217 214 222 235 249 272 285 275 265 239 226 231 214 210 182 161 190 226 172 172 214 203 148 109 75 105 145 131 119 119 119 115 116 110 94 95 99 94 90 88 86 87 90 88 76 65 65 69 75 82 85 83
235 232 231 225 221 222 219 215 213 214 216 221 222 215 208 209 215 218 219 218 220 223 227 228 227 226 226 224 221 225 225 217 217 220 217 221 230 239 258 275 275 267 238 231 231 213 212 186 172 207 240 194 182 205 193 147 140 130 66 97 115 116 121 121 118 124 123 101 92 92 91 92 91 91 94 92 92 91 77 63 63 68 75 81 85
239 234 234 226 219 216 212 210 212 211 212 215 217 219 217 212 214 216 215 213 215 220 225 226 226 225 224 222 221 224 225 219 217 222 222 224 230 235 244 261 266 257 239 236 228 216 222 203 190 217 235 193 188 203 199 169 155 138 92 89 106 105 110 119 118 121 124 114 106 102 98 97 96 100 103 98 98 105 100 76 70 73 78 85 89
242 233 229 224 221 220 219 219 214 211 214 216 210 210 217 221 220 215 210 209 212 218 221 223 224 224 222 221 222 225 226 222 219 222 224 225 229 234 235 241 254 249 237 235 227 218 222 215 208 225 226 189 190 193 189 181 156 141 137 139 127 98 99 112 119 122 123 117 112 108 105 104 104 106 111 112 112 116 120 115 106 107 113 112 110
250 236 231 230 230 225 219 216 212 207 209 212 208 208 215 221 224 219 211 208 210 215 219 220 222 223 221 220 222 225 227 226 223 224 225 226 229 233 230 229 243 246 236 233 226 217 218 215 212 219 206 184 187 185 183 182 157 145 154 153 134 136 144 122 124 128 126 121 119 116 111 109 110 114 120 129 133 134 138 143 148 155 151 136 128
259 241 232 227 227 222 213 209 205 195 194 201 207 208 208 212 218 221 219 213 210 213 215 214 216 221 222 221 220 222 226 227 226 226 227 228 229 230 228 229 238 242 236 233 227 218 215 211 209 211 196 183 188 185 182 185 165 148 151 152 150 174 202 188 144 136 131 125 115 104 102 97 91 104 121 128 139 152 160 159 157 167 165 143 140
259 234 211 201 207 213 214 214 207 189 186 197 205 205 205 207 211 218 220 213 207 208 207 203 207 216 223 224 223 223 224 225 226 227 227 228 229 227 227 231 235 237 237 235 230 221 216 212 209 206 195 187 190 187 182 186 177 159 161 174 180 186 203 214 189 146 125 114 96 84 86 85 83 100 144 295 145 173 180 172 160 163 164 159 167
285 34 151 183 188 191 200 205 199 184 187 201 209 211 211 210 212 219 223 216 208 205 200 197 203 211 219 226 228 226 224 223 225 226 226 226 226 224 225 231 233 233 235 236 234 226 218 215 210 203 198 193 192 191 188 189 190 177 172 181 190 193 200 205 183 132 109 103 91 81 89 101 118 168 236 279 262 171 180 180 175 173 175 181 194
256 257 262 235 198 184 182 179 174 177 190 201 209 215 214 210 211 215 218 218 217 212 203 198 203 208 214 221 227 229 227 224 224 225 223 223 224 220 221 230 235 233 232 236 237 231 222 214 207 202 199 196 195 194 193 191 191 189 182 185 194 200 195 179 160 132 123 141 140 129 136 153 180 219 248 263 128 139 161 175 183 190 198 194 178
267 257 258 261 252 229 196 172 165 167 175 180 188 200 203 202 204 207 211 219 224 219 210 206 208 211 215 219 224 230 230 225 224 224 220 220 222 220 219 227 234 233 230 229 231 232 227 214 206 203 199 197 197 197 195 194 193 193 191 189 193 197 193 173 160 159 175 177 160 149 167 190 206 226 239 195 134 132 135 148 163 177 182 160 144
290 275 267 263 253 241 227 201 185 179 177 174 174 181 186 188 190 195 202 213 216 213 211 214 215 216 219 223 229 238 239 232 227 227 223 219 220 220 219 225 230 231 227 219 220 228 231 216 205 204 199 197 199 197 194 195 195 197 197 188 183 186 185 173 170 177 182 174 163 166 187 200 214 228 224 158 141 135 125 124 130 138 145 148 148
297 289 281 274 263 252 241 224 215 219 219 209 199 197 198 194 188 187 190 195 202 207 213 218 219 218 219 225 232 241 246 241 235 232 228 221 218 217 219 223 226 228 226 217 214 222 225 215 206 203 199 199 201 200 196 195 196 199 196 181 175 173 170 174 184 183 170 164 172 191 206 214 221 225 196 153 143 135 127 125 124 123 129 136 136
301 292 287 284 277 271 263 248 239 239 237 229 224 220 217 215 212 207 204 200 201 210 216 219 222 222 221 224 226 232 243 249 245 238 232 225 219 216 217 221 223 224 223 218 215 218 218 212 205 201 200 202 203 201 199 197 199 200 188 176 172 168 168 183 189 174 162 166 182 200 214 216 201 183 165 151 143 137 132 129 125 121 120 120 118
314 302 292 283 276 276 274 263 251 246 240 233 228 221 215 216 218 218 220 220 219 223 225 223 225 228 228 228 228 231 238 246 250 250 247 238 226 218 216 218 220 221 220 216 214 215 213 208 203 199 200 203 204 204 202 201 201 196 182 173 169 165 174 189 178 162 162 182 197 205 212 195 167 160 155 150 145 138 131 129 126 120 110 100 100
331 318 302 289 280 276 273 266 255 246 236 229 228 225 220 218 221 225 230 227 222 224 228 229 232 236 235 233 233 234 239 247 256 262 266 263 245 231 225 222 220 218 219 216 214 213 212 208 206 203 203 204 205 206 204 202 199 188 175 169 164 165 181 188 171 161 171 194 201 207 207 185 169 162 157 155 148 134 136 150 146 133 129 124 107
338 333 321 311 299 284 273 268 261 251 241 237 238 238 231 226 227 232 234 231 228 231 236 239 242 244 244 243 244 246 250 258 264 265 263 260 254 244 235 229 223 220 219 218 216 215 214 211 208 208 207 205 206 207 206 203 197 184 173 168 167 178 192 190 174 172 186 197 206 214 206 186 169 161 168 177 165 154 176 188 170 153 164 181 180
339 340 334 327 318 301 283 273 264 256 251 249 248 246 242 239 237 236 237 241 244 246 248 249 249 248 250 252 252 252 254 255 256 256 255 250 244 240 235 229 224 223 223 220 218 216 215 213 211 210 210 207 206 208 207 204 198 188 177 171 177 196 204 194 184 189 193 196 211 217 200 181 168 167 188 202 186 182 199 192 165 156 164 180 200
341 342 337 332 331 324 310 293 276 260 252 251 250 251 254 255 252 248 249 253 255 254 254 256 256 255 255 254 252 250 250 250 248 248 248 244 238 236 232 225 222 224 224 222 222 221 218 216 214 213 212 208 205 207 208 207 200 190 183 179 185 202 211 197 187 196 197 196 207 206 186 178 178 181 202 217 198 196 205 183 160 159 156 164 201
344 346 342 337 338 336 326 312 292 271 258 253 250 250 253 253 252 252 253 256 257 258 260 262 263 261 258 252 248 245 244 244 245 244 244 243 241 239 232 218 216 220 220 219 221 222 219 216 215 215 213 207 205 206 207 209 202 190 188 194 195 203 212 195 186 200 204 196 196 190 178 182 188 187 204 221 207 201 206 182 168 170 160 159 197
342 347 347 343 341 339 335 326 307 282 270 266 262 258 256 254 252 252 254 257 259 261 266 269 266 261 253 247 245 244 244 244 243 243 243 242 241 240 234 217 209 213 217 219 221 221 219 215 213 214 212 207 208 208 205 208 205 192 192 202 203 205 211 198 191 205 208 191 188 189 186 191 192 188 202 215 209 207 210 189 176 177 167 166 199
339 343 347 347 345 341 339 337 329 307 284 278 276 271 265 262 260 257 258 261 262 263 267 268 265 259 252 247 245 246 248 248 246 247 247 243 237 233 228 215 206 206 209 213 217 220 220 216 211 212 210 208 210 210 203 202 205 198 196 204 206 206 210 203 198 207 207 190 187 193 194 196 194 190 200 209 205 206 210 197 189 192 178 172 201
339 337 340 345 346 342 337 335 332 324 307 289 282 276 269 268 268 268 266 265 265 267 269 268 265 262 259 255 253 253 252 250 246 247 249 245 235 227 221 213 207 205 205 205 207 212 217 215 210 209 208 207 209 208 200 198 205 206 204 205 204 206 210 206 203 207 205 194 191 194 198 202 198 192 198 206 203 204 209 204 201 205 197 183 201
338 333 335 340 342 340 337 331 325 321 310 292 279 272 268 264 263 266 268 268 268 269 268 265 263 263 261 259 259 259 256 249 244 243 245 243 233 224 218 213 209 207 206 204 202 205 209 210 208 209 210 211 212 209 201 198 205 211 210 207 204 207 211 209 208 210 206 195 193 197 202 205 201 194 197 204 203 203 208 209 205 207 206 195 198
330 328 330 332 333 335 336 331 324 317 309 297 284 273 266 260 257 257 258 260 261 261 260 260 260 261 262 260 258 259 253 241 237 237 236 231 221 213 210 210 209 208 207 205 203 204 205 206 208 212 215 216 216 211 204 202 205 209 212 209 205 208 214 214 213 216 211 197 192 198 203 203 200 199 200 203 205 205 208 210 208 206 203 198 199
325 320 320 322 324 327 328 326 321 314 302 294 288 279 265 252 246 245 247 250 250 247 250 259 266 270 271 263 253 253 248 235 231 232 229 220 211 204 202 205 207 208 208 208 207 206 206 207 211 217 220 220 214 206 203 206 206 207 213 213 206 207 215 217 216 219 217 201 192 197 205 202 198 200 202 202 205 209 209 208 209 208 204 203 201
319 314 314 318 321 322 320 318 316 312 303 292 284 278 266 250 241 239 246 257 258 250 249 258 269 278 281 275 257 247 245 238 231 229 226 224 217 207 201 203 206 208 209 210 209 209 210 214 219 224 225 219 207 201 204 207 204 205 215 218 210 207 213 218 217 220 222 209 194 194 206 206 199 200 205 202 201 208 210 207 208 212 214 214 209
313 312 314 318 323 324 320 315 310 307 306 300 291 287 281 268 258 257 263 271 273 267 258 255 260 271 279 282 275 256 242 238 236 232 229 229 227 218 212 211 214 216 216 214 213 214 217 221 226 229 227 217 206 205 211 209 200 201 211 217 213 209 211 215 217 219 223 216 199 192 204 212 204 200 206 205 199 204 210 207 206 212 218 219 211
316 315 315 320 326 325 319 314 307 303 303 303 300 296 290 280 273 274 280 281 281 278 269 257 253 258 266 273 278 271 248 233 233 235 234 232 229 226 224 224 224 225 224 222 222 222 221 224 227 229 229 220 209 208 214 210 200 200 210 216 216 212 210 213 217 218 222 222 206 193 199 213 208 200 205 209 204 202 207 207 205 209 214 213 206
320 319 318 322 326 323 315 311 307 303 302 303 302 298 292 286 281 281 285 287 284 282 278 265 257 258 260 263 271 276 264 242 234 234 237 235 231 230 230 230 229 227 225 226 230 228 225 227 230 230 229 223 211 208 217 214 204 202 211 216 216 213 209 210 215 215 217 223 214 198 196 209 211 201 201 210 209 204 206 208 205 205 208 208 204
322 322 319 317 314 309 305 301 297 296 298 300 301 299 293 289 285 282 285 290 286 281 281 272 259 261 263 262 266 271 270 261 251 244 242 239 235 234 234 233 231 227 223 225 230 231 228 230 232 230 230 224 211 207 214 213 203 203 212 215 214 214 211 208 212 214 214 219 220 207 197 201 211 206 200 205 209 207 206 209 208 206 207 207 205
317 315 312 310 306 305 305 303 300 297 295 295 297 298 295 291 288 284 284 284 278 275 280 279 266 262 264 265 266 268 270 271 269 264 257 247 238 234 235 234 233 229 224 224 229 231 230 231 233 232 232 226 212 207 211 209 201 205 213 213 212 215 214 209 211 216 215 214 220 215 201 196 206 211 205 203 207 208 206 208 210 207 207 207 207
306 306 308 309 308 306 305 304 301 299 294 290 289 290 289 286 285 284 283 280 273 268 273 277 273 270 267 264 263 265 266 266 268 271 271 263 250 239 233 232 233 232 228 228 231 233 232 234 237 238 238 232 218 213 215 213 206 205 211 212 212 215 217 211 209 215 218 215 216 217 208 199 201 210 211 206 207 208 207 208 211 209 208 208 208
304 304 304 305 304 303 302 301 299 297 295 291 288 286 284 281 280 281 282 281 276 271 270 269 267 268 270 267 265 267 269 270 271 273 274 272 264 252 239 232 230 230 228 228 231 233 233 234 237 240 243 239 224 217 219 218 211 206 211 214 211 211 216 214 208 210 218 220 215 214 213 206 201 205 211 211 209 210 209 209 211 213 212 209 208
300 300 300 300 300 299 300 300 298 296 293 291 288 286 284 282 279 277 275 274 272 271 273 271 261 257 264 268 267 266 269 274 279 282 281 276 270 261 250 240 234 231 227 226 226 228 230 234 237 239 241 237 225 218 218 217 211 209 213 217 212 208 212 216 211 206 213 221 218 212 212 212 208 206 209 212 213 212 211 208 210 214 215 211 209
297 299 299 298 297 296 295 295 295 294 293 291 289 286 284 282 281 278 275 272 269 267 267 265 259 257 262 264 263 262 263 267 275 283 287 283 273 261 251 245 239 231 224 221 223 227 231 235 239 240 237 230 225 221 216 211 208 210 215 216 213 209 208 212 213 208 207 216 221 214 208 211 213 211 209 212 214 213 212 209 208 213 218 215 210
295 297 296 294 293 293 292 291 289 289 289 288 286 285 282 279 278 278 275 272 268 265 262 259 258 259 261 262 262 262 262 265 270 278 287 290 282 266 252 243 238 230 221 218 221 228 233 236 239 240 233 226 224 221 214 207 208 213 215 214 213 212 208 208 212 212 207 210 219 217 207 207 212 213 210 211 213 212 212 211 210 211 216 219 215
292 293 293 292 290 289 288 287 285 285 285 285 284 284 282 279 276 275 274 272 271 268 263 259 258 258 255 257 262 265 264 263 266 272 282 290 289 276 259 246 238 234 227 221 222 226 230 234 239 239 230 222 219 215 212 211 214 216 216 214 213 214 210 207 209 213 210 208 213 217 211 206 209 212 211 211 212 212 210 212 214 213 212 215 218